Total_Precipitation_Accumulation
0.00 0.00 0.00 0.00 0.00 0.00 0.00 0.00 0.00 0.00 0.00 0.00 0.00 0.00 0.00 0.00 0.00 0.00 0.00 0.00 0.00 0.00 0.00 0.00 0.00 0.00 0.00 0.00 0.00 0.00 0.00 0.00 0.00 0.01 0.12 0.00 0.00 0.01 0.02 0.01 0.03 0.04 0.01 0.02 0.03 0.05 0.13 0.08 0.15 0.16 0.27 0.15 0.15 0.11 0.10 0.10 0.07 0.08 0.07 0.05 0.03 0.04 0.06 0.06 0.05 0.07 0.04 0.03 0.03 0.02 0.05 0.03 0.03 0.03 0.05 0.03 0.03 0.02 0.05 0.03 0.03 0.03 0.03 0.03 0.10 0.25 0.22 0.18 0.10 0.06 0.05 0.05 0.03 0.03 0.01 0.01 0.02
0.00 0.00 0.00 0.00 0.00 0.00 0.00 0.00 0.00 0.00 0.00 0.00 0.00 0.00 0.00 0.00 0.00 0.00 0.00 0.00 0.00 0.00 0.00 0.00 0.00 0.00 0.00 0.00 0.00 0.00 0.00 0.00 0.00 0.00 0.01 0.01 0.01 0.02 0.07 0.02 0.01 0.02 0.01 0.03 0.03 0.07 0.10 0.07 0.08 0.10 0.21 0.11 0.13 0.07 0.08 0.10 0.06 0.04 0.04 0.03 0.03 0.02 0.03 0.03 0.05 0.06 0.03 0.02 0.02 0.04 0.04 0.05 0.02 0.04 0.03 0.04 0.02 0.02 0.03 0.03 0.03 0.09 0.07 0.05 0.12 0.22 0.18 0.15 0.10 0.05 0.03 0.03 0.04 0.01 0.01 0.02 0.02
0.00 0.00 0.00 0.00 0.00 0.00 0.00 0.00 0.00 0.00 0.00 0.00 0.00 0.00 0.00 0.00 0.00 0.00 0.00 0.00 0.00 0.00 0.00 0.00 0.00 0.00 0.00 0.00 0.00 0.00 0.00 0.01 0.00 0.00 0.01 0.03 0.01 0.09 0.02 0.01 0.01 0.01 0.02 0.01 0.02 0.05 0.07 0.06 0.08 0.07 0.12 0.11 0.15 0.09 0.07 0.07 0.08 0.08 0.05 0.03 0.04 0.02 0.01 0.01 0.02 0.03 0.02 0.01 0.01 0.03 0.04 0.03 0.03 0.02 0.03 0.02 0.02 0.05 0.02 0.02 0.03 0.03 0.06 0.10 0.13 0.10 0.07 0.04 0.01 0.01 0.01 0.02 0.01 0.00 0.00 0.01 0.01
0.00 0.00 0.00 0.00 0.00 0.00 0.00 0.00 0.00 0.00 0.00 0.00 0.00 0.00 0.00 0.00 0.00 0.00 0.00 0.00 0.00 0.00 0.00 0.00 0.00 0.00 0.00 0.00 0.00 0.00 0.00 0.00 0.01 0.00 0.03 0.03 0.00 0.03 0.03 0.01 0.01 0.02 0.00 0.01 0.01 0.05 0.08 0.07 0.02 0.06 0.09 0.08 0.19 0.16 0.12 0.11 0.08 0.11 0.08 0.05 0.03 0.01 0.02 0.02 0.03 0.04 0.03 0.03 0.05 0.05 0.05 0.06 0.04 0.02 0.01 0.01 0.01 0.02 0.04 0.03 0.03 0.03 0.05 0.07 0.06 0.06 0.02 0.00 0.00 0.00 0.00 0.00 0.00 0.01 0.00 0.00 0.00
0.00 0.00 0.00 0.00 0.00 0.00 0.00 0.00 0.00 0.00 0.00 0.00 0.00 0.00 0.00 0.00 0.00 0.00 0.00 0.00 0.00 0.00 0.00 0.00 0.00 0.00 0.00 0.00 0.00 0.00 0.00 0.01 0.00 0.00 0.00 0.00 0.00 0.01 0.01 0.01 0.03 0.03 0.02 0.02 0.03 0.04 0.07 0.03 0.04 0.05 0.12 0.20 0.16 0.19 0.17 0.10 0.10 0.08 0.05 0.04 0.03 0.01 0.02 0.01 0.03 0.04 0.04 0.03 0.03 0.04 0.04 0.05 0.03 0.01 0.00 0.00 0.01 0.00 0.02 0.03 0.02 0.02 0.03 0.06 0.03 0.01 0.00 0.00 0.00 0.00 0.01 0.00 0.01 0.01 0.01 0.00 0.02
0.00 0.00 0.00 0.00 0.00 0.00 0.00 0.00 0.00 0.00 0.00 0.00 0.00 0.00 0.00 0.00 0.00 0.00 0.00 0.00 0.00 0.00 0.00 0.00 0.00 0.00 0.00 0.00 0.00 0.00 0.00 0.00 0.00 0.00 0.00 0.00 0.00 0.01 0.01 0.02 0.04 0.04 0.04 0.03 0.05 0.05 0.10 0.02 0.02 0.07 0.10 0.14 0.20 0.21 0.16 0.11 0.14 0.07 0.06 0.06 0.04 0.02 0.02 0.02 0.03 0.03 0.03 0.03 0.07 0.04 0.04 0.04 0.03 0.01 0.00 0.00 0.00 0.00 0.01 0.01 0.01 0.01 0.02 0.02 0.02 0.01 0.01 0.02 0.01 0.03 0.03 0.02 0.04 0.04 0.05 0.01 0.02
0.00 0.00 0.00 0.00 0.00 0.00 0.00 0.00 0.00 0.00 0.00 0.00 0.00 0.00 0.00 0.00 0.00 0.00 0.00 0.00 0.00 0.00 0.00 0.00 0.00 0.00 0.00 0.00 0.00 0.00 0.00 0.00 0.00 0.00 0.00 0.00 0.00 0.01 0.02 0.03 0.02 0.04 0.05 0.04 0.03 0.07 0.05 0.02 0.04 0.03 0.05 0.16 0.11 0.14 0.19 0.14 0.14 0.14 0.08 0.10 0.09 0.06 0.04 0.03 0.03 0.03 0.04 0.03 0.03 0.03 0.02 0.03 0.02 0.01 0.01 0.01 0.01 0.01 0.02 0.02 0.04 0.02 0.02 0.01 0.01 0.01 0.00 0.01 0.01 0.01 0.01 0.02 0.02 0.05 0.01 0.02 0.05
0.00 0.00 0.00 0.00 0.00 0.00 0.00 0.00 0.00 0.00 0.00 0.00 0.00 0.00 0.00 0.00 0.00 0.00 0.00 0.00 0.00 0.00 0.00 0.00 0.00 0.00 0.00 0.00 0.00 0.00 0.00 0.00 0.00 0.00 0.00 0.01 0.01 0.02 0.02 0.03 0.04 0.07 0.08 0.04 0.04 0.08 0.04 0.04 0.02 0.02 0.04 0.05 0.10 0.05 0.09 0.11 0.11 0.15 0.09 0.07 0.07 0.07 0.06 0.04 0.03 0.05 0.05 0.02 0.01 0.03 0.05 0.02 0.02 0.01 0.01 0.01 0.01 0.02 0.03 0.03 0.03 0.03 0.02 0.01 0.00 0.01 0.02 0.01 0.01 0.03 0.02 0.02 0.03 0.03 0.02 0.01 0.01
0.00 0.00 0.00 0.00 0.00 0.00 0.00 0.00 0.00 0.00 0.00 0.00 0.00 0.00 0.00 0.00 0.00 0.00 0.00 0.00 0.00 0.00 0.00 0.00 0.00 0.00 0.00 0.00 0.00 0.00 0.00 0.00 0.00 0.00 0.00 0.01 0.01 0.01 0.01 0.02 0.02 0.06 0.08 0.07 0.07 0.05 0.07 0.03 0.03 0.02 0.02 0.01 0.04 0.10 0.06 0.09 0.06 0.06 0.08 0.07 0.07 0.08 0.09 0.09 0.04 0.04 0.02 0.01 0.01 0.02 0.03 0.05 0.03 0.05 0.01 0.03 0.05 0.04 0.02 0.04 0.02 0.02 0.01 0.00 0.00 0.00 0.01 0.01 0.02 0.03 0.03 0.02 0.03 0.02 0.02 0.01 0.02
0.00 0.00 0.00 0.00 0.00 0.00 0.00 0.00 0.00 0.00 0.00 0.00 0.00 0.00 0.00 0.00 0.00 0.00 0.00 0.00 0.00 0.00 0.00 0.00 0.00 0.00 0.00 0.00 0.00 0.00 0.00 0.00 0.00 0.01 0.01 0.01 0.01 0.02 0.01 0.01 0.01 0.03 0.07 0.07 0.06 0.05 0.10 0.08 0.04 0.03 0.05 0.04 0.08 0.12 0.12 0.09 0.07 0.03 0.05 0.07 0.11 0.07 0.06 0.05 0.07 0.06 0.02 0.01 0.01 0.04 0.03 0.03 0.05 0.07 0.05 0.03 0.03 0.02 0.02 0.03 0.02 0.01 0.01 0.01 0.00 0.00 0.00 0.00 0.01 0.01 0.02 0.02 0.02 0.01 0.01 0.01 0.01
0.00 0.00 0.00 0.00 0.00 0.00 0.00 0.00 0.00 0.00 0.00 0.00 0.00 0.00 0.00 0.00 0.00 0.00 0.00 0.00 0.00 0.00 0.00 0.00 0.00 0.00 0.00 0.00 0.00 0.00 0.00 0.00 0.01 0.01 0.01 0.01 0.01 0.02 0.02 0.01 0.02 0.02 0.06 0.08 0.06 0.06 0.06 0.09 0.06 0.05 0.06 0.06 0.12 0.10 0.14 0.14 0.12 0.12 0.09 0.11 0.10 0.10 0.09 0.03 0.06 0.07 0.04 0.01 0.01 0.02 0.05 0.08 0.12 0.17 0.10 0.03 0.02 0.02 0.02 0.03 0.02 0.01 0.00 0.01 0.00 0.00 0.00 0.00 0.01 0.02 0.02 0.02 0.01 0.01 0.01 0.00 0.00
0.00 0.00 0.00 0.00 0.00 0.00 0.00 0.00 0.00 0.00 0.00 0.00 0.00 0.00 0.00 0.00 0.00 0.00 0.00 0.00 0.00 0.00 0.00 0.00 0.00 0.00 0.00 0.00 0.00 0.00 0.00 0.01 0.00 0.00 0.01 0.01 0.02 0.02 0.01 0.03 0.03 0.03 0.04 0.07 0.07 0.07 0.08 0.06 0.06 0.04 0.03 0.08 0.09 0.09 0.13 0.12 0.07 0.08 0.10 0.12 0.10 0.09 0.08 0.10 0.07 0.04 0.05 0.02 0.03 0.03 0.05 0.10 0.13 0.15 0.12 0.10 0.06 0.03 0.04 0.02 0.02 0.01 0.01 0.01 0.01 0.01 0.01 0.01 0.01 0.01 0.01 0.00 0.00 0.00 0.02 0.01 0.00
0.00 0.00 0.00 0.00 0.00 0.00 0.00 0.00 0.00 0.00 0.00 0.00 0.00 0.00 0.00 0.00 0.00 0.00 0.00 0.00 0.00 0.00 0.00 0.00 0.00 0.00 0.00 0.00 0.00 0.00 0.00 0.01 0.01 0.01 0.02 0.02 0.02 0.03 0.02 0.03 0.03 0.04 0.08 0.06 0.09 0.11 0.11 0.06 0.06 0.06 0.05 0.09 0.15 0.09 0.10 0.10 0.06 0.05 0.09 0.09 0.06 0.09 0.07 0.05 0.06 0.08 0.04 0.03 0.05 0.05 0.04 0.03 0.04 0.08 0.06 0.11 0.05 0.05 0.02 0.05 0.02 0.02 0.02 0.02 0.02 0.01 0.02 0.01 0.01 0.01 0.00 0.00 0.00 0.00 0.00 0.01 0.00
0.00 0.00 0.00 0.00 0.00 0.00 0.00 0.00 0.00 0.00 0.00 0.00 0.00 0.00 0.00 0.00 0.00 0.00 0.00 0.00 0.00 0.00 0.00 0.00 0.00 0.00 0.00 0.00 0.01 0.00 0.00 0.00 0.01 0.02 0.02 0.02 0.02 0.03 0.03 0.04 0.04 0.06 0.07 0.07 0.09 0.11 0.11 0.10 0.09 0.08 0.06 0.16 0.16 0.19 0.06 0.11 0.06 0.10 0.10 0.12 0.05 0.05 0.03 0.04 0.03 0.02 0.03 0.01 0.02 0.01 0.01 0.01 0.03 0.10 0.08 0.07 0.11 0.08 0.03 0.03 0.05 0.03 0.02 0.01 0.01 0.00 0.01 0.01 0.00 0.00 0.00 0.00 0.00 0.00 0.01 0.00 0.00
0.00 0.00 0.00 0.00 0.00 0.00 0.00 0.00 0.00 0.00 0.00 0.00 0.00 0.00 0.00 0.00 0.00 0.00 0.00 0.00 0.00 0.00 0.00 0.00 0.00 0.00 0.00 0.00 0.00 0.00 0.00 0.00 0.02 0.02 0.03 0.04 0.03 0.03 0.04 0.05 0.04 0.05 0.07 0.09 0.09 0.11 0.20 0.22 0.19 0.13 0.06 0.06 0.08 0.14 0.16 0.11 0.07 0.06 0.12 0.12 0.12 0.06 0.05 0.02 0.03 0.02 0.02 0.00 0.00 0.00 0.00 0.00 0.01 0.04 0.06 0.02 0.02 0.02 0.02 0.00 0.01 0.03 0.02 0.00 0.00 0.00 0.00 0.00 0.00 0.00 0.00 0.01 0.00 0.00 0.01 0.00 0.00
0.00 0.00 0.00 0.00 0.00 0.00 0.00 0.00 0.00 0.00 0.00 0.00 0.00 0.00 0.00 0.00 0.00 0.00 0.00 0.00 0.00 0.00 0.00 0.00 0.00 0.00 0.00 0.00 0.00 0.00 0.00 0.00 0.02 0.03 0.03 0.03 0.04 0.04 0.05 0.06 0.04 0.05 0.06 0.07 0.06 0.08 0.13 0.19 0.22 0.23 0.11 0.09 0.05 0.07 0.10 0.14 0.06 0.05 0.04 0.10 0.09 0.10 0.05 0.04 0.02 0.01 0.00 0.00 0.00 0.01 0.01 0.01 0.01 0.02 0.01 0.07 0.02 0.02 0.02 0.03 0.01 0.01 0.03 0.00 0.00 0.00 0.01 0.00 0.00 0.00 0.00 0.00 0.01 0.01 0.02 0.00 0.00
0.00 0.00 0.00 0.00 0.00 0.00 0.00 0.00 0.00 0.00 0.00 0.00 0.00 0.00 0.00 0.00 0.00 0.00 0.00 0.00 0.00 0.00 0.00 0.00 0.00 0.00 0.00 0.00 0.00 0.00 0.00 0.01 0.02 0.03 0.03 0.05 0.04 0.06 0.07 0.10 0.07 0.07 0.06 0.06 0.04 0.06 0.06 0.13 0.11 0.20 0.15 0.13 0.06 0.08 0.09 0.11 0.10 0.04 0.09 0.08 0.09 0.11 0.09 0.05 0.01 0.01 0.01 0.02 0.01 0.02 0.03 0.05 0.04 0.07 0.03 0.07 0.01 0.04 0.05 0.04 0.01 0.01 0.02 0.00 0.00 0.00 0.00 0.00 0.00 0.00 0.00 0.01 0.00 0.00 0.00 0.00 0.00
0.00 0.00 0.00 0.00 0.00 0.00 0.00 0.00 0.00 0.00 0.00 0.00 0.00 0.00 0.00 0.00 0.00 0.00 0.00 0.00 0.00 0.00 0.00 0.00 0.00 0.00 0.00 0.00 0.00 0.00 0.01 0.02 0.03 0.04 0.03 0.03 0.04 0.04 0.07 0.06 0.07 0.05 0.07 0.06 0.04 0.04 0.04 0.09 0.06 0.12 0.15 0.14 0.16 0.09 0.09 0.13 0.10 0.06 0.19 0.17 0.13 0.19 0.15 0.11 0.04 0.15 0.03 0.08 0.04 0.02 0.03 0.03 0.02 0.03 0.07 0.04 0.03 0.03 0.06 0.02 0.00 0.00 0.00 0.00 0.00 0.00 0.00 0.00 0.00 0.01 0.00 0.00 0.00 0.00 0.00 0.00 0.00
0.00 0.00 0.00 0.00 0.00 0.00 0.00 0.00 0.00 0.00 0.00 0.00 0.00 0.00 0.00 0.00 0.00 0.00 0.00 0.00 0.00 0.00 0.00 0.00 0.00 0.00 0.00 0.00 0.00 0.00 0.02 0.02 0.03 0.02 0.01 0.02 0.03 0.01 0.02 0.05 0.05 0.03 0.06 0.05 0.05 0.04 0.03 0.04 0.05 0.08 0.11 0.10 0.14 0.16 0.09 0.10 0.07 0.07 0.14 0.12 0.12 0.09 0.21 0.18 0.07 0.11 0.10 0.06 0.06 0.07 0.07 0.07 0.05 0.03 0.05 0.07 0.07 0.02 0.03 0.01 0.01 0.00 0.00 0.00 0.00 0.00 0.00 0.00 0.00 0.01 0.00 0.00 0.00 0.00 0.00 0.00 0.00
0.00 0.00 0.00 0.00 0.00 0.00 0.00 0.00 0.00 0.00 0.00 0.00 0.00 0.00 0.00 0.00 0.00 0.00 0.00 0.00 0.00 0.00 0.00 0.00 0.00 0.00 0.00 0.00 0.00 0.01 0.02 0.02 0.02 0.02 0.01 0.01 0.01 0.01 0.01 0.02 0.03 0.02 0.02 0.03 0.03 0.03 0.04 0.02 0.06 0.04 0.07 0.09 0.10 0.23 0.13 0.11 0.10 0.11 0.11 0.13 0.13 0.13 0.10 0.17 0.19 0.10 0.14 0.13 0.08 0.10 0.06 0.07 0.05 0.08 0.02 0.03 0.08 0.13 0.08 0.02 0.02 0.02 0.01 0.00 0.00 0.00 0.00 0.00 0.00 0.00 0.00 0.00 0.00 0.00 0.00 0.00 0.00
0.00 0.00 0.00 0.00 0.00 0.00 0.00 0.00 0.00 0.00 0.00 0.00 0.00 0.00 0.00 0.00 0.00 0.00 0.00 0.00 0.00 0.00 0.00 0.00 0.00 0.00 0.00 0.00 0.00 0.01 0.01 0.02 0.03 0.02 0.01 0.01 0.01 0.01 0.00 0.00 0.01 0.02 0.01 0.03 0.04 0.03 0.04 0.03 0.03 0.05 0.05 0.06 0.07 0.15 0.25 0.15 0.10 0.12 0.11 0.08 0.12 0.34 0.18 0.16 0.14 0.16 0.24 0.18 0.11 0.10 0.08 0.06 0.07 0.07 0.05 0.03 0.02 0.02 0.07 0.15 0.22 0.20 0.11 0.05 0.03 0.04 0.04 0.00 0.00 0.01 0.00 0.00 0.00 0.00 0.00 0.00 0.00
0.00 0.00 0.01 0.00 0.00 0.00 0.00 0.00 0.00 0.00 0.00 0.00 0.00 0.00 0.00 0.00 0.00 0.00 0.00 0.00 0.00 0.00 0.00 0.00 0.00 0.00 0.00 0.00 0.00 0.00 0.01 0.01 0.02 0.02 0.01 0.01 0.01 0.01 0.01 0.01 0.01 0.01 0.02 0.03 0.03 0.04 0.03 0.03 0.03 0.04 0.04 0.06 0.06 0.10 0.15 0.23 0.14 0.14 0.12 0.09 0.09 0.08 0.24 0.44 0.19 0.15 0.16 0.15 0.12 0.08 0.06 0.10 0.10 0.28 0.13 0.06 0.10 0.01 0.01 0.03 0.08 0.14 0.14 0.13 0.09 0.08 0.04 0.00 0.00 0.01 0.00 0.00 0.00 0.00 0.00 0.00 0.00
0.00 0.00 0.00 0.00 0.00 0.00 0.00 0.00 0.00 0.00 0.00 0.00 0.00 0.00 0.00 0.00 0.00 0.00 0.00 0.00 0.00 0.00 0.00 0.00 0.00 0.00 0.00 0.00 0.00 0.00 0.00 0.00 0.01 0.01 0.01 0.01 0.01 0.01 0.01 0.01 0.01 0.01 0.01 0.02 0.01 0.02 0.03 0.03 0.03 0.03 0.04 0.05 0.07 0.08 0.09 0.20 0.26 0.16 0.08 0.12 0.16 0.19 0.10 0.15 0.54 0.48 0.27 0.20 0.24 0.13 0.08 0.10 0.10 0.10 0.18 0.25 0.13 0.07 0.02 0.03 0.07 0.08 0.06 0.02 0.02 0.02 0.01 0.01 0.01 0.00 0.01 0.00 0.00 0.00 0.00 0.00 0.00
0.00 0.00 0.00 0.00 0.00 0.00 0.00 0.00 0.00 0.00 0.00 0.00 0.00 0.00 0.00 0.00 0.00 0.00 0.00 0.00 0.00 0.00 0.00 0.00 0.00 0.00 0.00 0.00 0.00 0.00 0.00 0.00 0.00 0.00 0.00 0.00 0.00 0.00 0.00 0.01 0.01 0.01 0.01 0.01 0.01 0.01 0.02 0.03 0.03 0.03 0.03 0.04 0.07 0.06 0.09 0.11 0.29 0.25 0.24 0.14 0.15 0.17 0.47 0.29 0.12 0.15 0.31 0.31 0.24 0.26 0.27 0.27 0.14 0.10 0.25 0.27 0.40 0.25 0.22 0.27 0.15 0.20 0.09 0.13 0.12 0.06 0.04 0.05 0.04 0.03 0.01 0.00 0.00 0.00 0.00 0.00 0.00
0.00 0.00 0.00 0.00 0.00 0.00 0.00 0.00 0.00 0.00 0.00 0.00 0.00 0.00 0.00 0.00 0.00 0.00 0.00 0.00 0.00 0.00 0.00 0.00 0.00 0.00 0.00 0.00 0.00 0.00 0.00 0.00 0.00 0.00 0.01 0.00 0.00 0.01 0.01 0.01 0.01 0.01 0.01 0.01 0.01 0.02 0.02 0.02 0.02 0.03 0.03 0.03 0.05 0.06 0.09 0.08 0.13 0.31 0.26 0.21 0.33 0.13 0.27 0.22 0.20 0.13 0.23 0.32 0.31 0.39 0.36 0.32 0.28 0.18 0.31 0.20 0.24 0.23 0.13 0.23 0.23 0.15 0.10 0.07 0.06 0.08 0.07 0.04 0.05 0.03 0.01 0.00 0.00 0.00 0.00 0.00 0.00
0.00 0.00 0.00 0.00 0.00 0.00 0.00 0.00 0.00 0.00 0.00 0.00 0.00 0.00 0.00 0.00 0.00 0.00 0.00 0.00 0.00 0.00 0.00 0.00 0.00 0.00 0.00 0.00 0.00 0.00 0.00 0.00 0.00 0.00 0.00 0.00 0.00 0.01 0.00 0.01 0.01 0.01 0.00 0.01 0.01 0.01 0.02 0.02 0.04 0.03 0.02 0.04 0.05 0.06 0.07 0.12 0.11 0.30 0.29 0.34 0.23 0.18 0.19 0.29 0.24 0.27 0.26 0.28 0.34 0.33 0.34 0.65 0.47 0.24 0.28 0.31 0.25 0.22 0.16 0.17 0.29 0.21 0.15 0.11 0.07 0.05 0.22 0.08 0.04 0.01 0.01 0.01 0.00 0.00 0.00 0.00 0.00
0.00 0.00 0.00 0.00 0.00 0.00 0.00 0.00 0.00 0.00 0.00 0.00 0.00 0.00 0.00 0.00 0.00 0.00 0.00 0.00 0.00 0.00 0.00 0.00 0.00 0.00 0.00 0.00 0.00 0.00 0.00 0.00 0.00 0.00 0.00 0.00 0.00 0.00 0.00 0.01 0.01 0.00 0.01 0.01 0.01 0.01 0.01 0.02 0.04 0.03 0.03 0.02 0.05 0.06 0.10 0.10 0.08 0.21 0.27 0.37 0.31 0.12 0.14 0.10 0.16 0.27 0.12 0.20 0.35 0.29 0.22 0.23 0.17 0.18 0.13 0.13 0.30 0.25 0.22 0.18 0.25 0.29 0.31 0.35 0.35 0.36 0.26 0.11 0.06 0.06 0.04 0.04 0.01 0.00 0.01 0.00 0.00
0.00 0.00 0.00 0.00 0.00 0.00 0.00 0.00 0.00 0.00 0.00 0.00 0.00 0.00 0.00 0.00 0.00 0.00 0.00 0.00 0.00 0.00 0.00 0.00 0.00 0.00 0.00 0.00 0.00 0.00 0.00 0.00 0.00 0.00 0.00 0.00 0.00 0.00 0.00 0.00 0.00 0.00 0.01 0.01 0.01 0.01 0.02 0.03 0.03 0.04 0.05 0.07 0.07 0.08 0.08 0.09 0.10 0.14 0.09 0.18 0.30 0.17 0.15 0.16 0.13 0.20 0.29 0.09 0.12 0.11 0.16 0.29 0.37 0.48 0.59 0.65 0.63 0.59 0.34 0.25 0.16 0.13 0.08 0.07 0.10 0.14 0.14 0.14 0.09 0.05 0.03 0.05 0.03 0.03 0.06 0.03 0.00
0.00 0.00 0.00 0.00 0.00 0.00 0.00 0.00 0.00 0.00 0.00 0.00 0.00 0.00 0.00 0.00 0.00 0.00 0.00 0.00 0.00 0.00 0.00 0.00 0.00 0.00 0.00 0.00 0.00 0.00 0.00 0.00 0.00 0.00 0.00 0.00 0.00 0.00 0.00 0.00 0.00 0.00 0.00 0.00 0.01 0.01 0.01 0.03 0.04 0.06 0.06 0.07 0.07 0.07 0.07 0.06 0.09 0.09 0.13 0.12 0.21 0.22 0.18 0.15 0.16 0.17 0.14 0.22 0.14 0.19 0.12 0.07 0.17 0.13 0.14 0.25 0.38 0.53 0.57 0.38 0.31 0.44 0.30 0.21 0.14 0.16 0.18 0.17 0.15 0.15 0.13 0.07 0.08 0.08 0.02 0.01 0.02
0.00 0.00 0.00 0.00 0.00 0.00 0.00 0.00 0.00 0.00 0.00 0.00 0.00 0.00 0.00 0.00 0.00 0.00 0.00 0.00 0.00 0.00 0.00 0.00 0.00 0.00 0.00 0.00 0.00 0.00 0.00 0.00 0.00 0.00 0.00 0.00 0.00 0.00 0.00 0.00 0.00 0.00 0.00 0.00 0.01 0.01 0.01 0.02 0.04 0.05 0.05 0.06 0.05 0.06 0.06 0.07 0.06 0.08 0.08 0.08 0.08 0.22 0.27 0.22 0.13 0.11 0.15 0.16 0.18 0.17 0.17 0.08 0.04 0.10 0.14 0.12 0.28 0.23 0.23 0.12 0.14 0.28 0.38 0.43 0.34 0.16 0.13 0.16 0.15 0.09 0.04 0.06 0.05 0.02 0.00 0.01 0.00
0.00 0.00 0.00 0.00 0.00 0.00 0.00 0.00 0.00 0.00 0.00 0.00 0.00 0.00 0.00 0.00 0.00 0.00 0.00 0.00 0.00 0.00 0.00 0.00 0.00 0.00 0.00 0.00 0.00 0.00 0.00 0.00 0.00 0.00 0.00 0.00 0.00 0.00 0.00 0.00 0.00 0.00 0.00 0.00 0.00 0.00 0.01 0.02 0.03 0.04 0.04 0.05 0.04 0.07 0.06 0.05 0.05 0.05 0.06 0.07 0.09 0.12 0.20 0.22 0.10 0.07 0.09 0.18 0.17 0.12 0.13 0.23 0.17 0.10 0.10 0.10 0.12 0.17 0.20 0.20 0.17 0.18 0.15 0.13 0.11 0.09 0.10 0.15 0.17 0.11 0.08 0.08 0.06 0.01 0.00 0.00 0.00
0.00 0.00 0.00 0.00 0.00 0.00 0.00 0.00 0.00 0.00 0.00 0.00 0.00 0.00 0.00 0.00 0.00 0.00 0.00 0.00 0.00 0.00 0.00 0.00 0.00 0.00 0.00 0.00 0.00 0.00 0.00 0.00 0.00 0.00 0.00 0.00 0.00 0.00 0.00 0.00 0.00 0.00 0.00 0.00 0.00 0.00 0.00 0.01 0.02 0.03 0.04 0.03 0.04 0.04 0.04 0.05 0.06 0.05 0.07 0.07 0.11 0.13 0.19 0.24 0.29 0.23 0.14 0.08 0.10 0.09 0.07 0.06 0.16 0.13 0.06 0.05 0.05 0.10 0.12 0.10 0.11 0.10 0.10 0.13 0.18 0.17 0.14 0.12 0.13 0.12 0.08 0.05 0.02 0.02 0.04 0.03 0.02
0.00 0.00 0.00 0.00 0.00 0.00 0.00 0.00 0.00 0.00 0.00 0.00 0.00 0.00 0.00 0.00 0.00 0.00 0.00 0.00 0.00 0.00 0.00 0.00 0.00 0.00 0.00 0.00 0.00 0.00 0.00 0.00 0.00 0.00 0.00 0.00 0.00 0.00 0.00 0.00 0.00 0.00 0.00 0.00 0.00 0.00 0.01 0.01 0.02 0.02 0.02 0.03 0.02 0.04 0.06 0.05 0.07 0.08 0.08 0.09 0.10 0.15 0.16 0.16 0.16 0.16 0.23 0.26 0.28 0.31 0.34 0.38 0.42 0.47 0.39 0.33 0.23 0.21 0.19 0.15 0.09 0.07 0.09 0.08 0.10 0.15 0.16 0.12 0.04 0.04 0.08 0.15 0.15 0.08 0.03 0.02 0.01
0.03 0.00 0.00 0.00 0.00 0.00 0.00 0.00 0.00 0.00 0.00 0.00 0.00 0.00 0.00 0.00 0.00 0.00 0.00 0.00 0.00 0.00 0.00 0.00 0.00 0.00 0.00 0.00 0.00 0.00 0.00 0.00 0.00 0.00 0.00 0.00 0.00 0.00 0.00 0.00 0.00 0.00 0.00 0.00 0.00 0.00 0.00 0.01 0.00 0.01 0.01 0.01 0.03 0.03 0.04 0.06 0.08 0.08 0.09 0.09 0.06 0.11 0.14 0.16 0.13 0.19 0.17 0.13 0.14 0.12 0.11 0.09 0.11 0.16 0.30 0.28 0.27 0.20 0.21 0.36 0.40 0.40 0.31 0.29 0.22 0.25 0.30 0.28 0.23 0.17 0.11 0.08 0.05 0.04 0.02 0.02 0.03
0.04 0.01 0.00 0.00 0.00 0.00 0.00 0.00 0.00 0.00 0.00 0.00 0.00 0.00 0.00 0.00 0.00 0.00 0.00 0.00 0.00 0.00 0.00 0.00 0.00 0.00 0.00 0.00 0.00 0.00 0.00 0.00 0.00 0.00 0.00 0.00 0.00 0.00 0.00 0.00 0.00 0.00 0.00 0.00 0.00 0.00 0.01 0.01 0.00 0.01 0.01 0.02 0.02 0.03 0.03 0.03 0.06 0.08 0.10 0.13 0.11 0.09 0.10 0.11 0.12 0.13 0.15 0.13 0.11 0.11 0.10 0.09 0.09 0.10 0.15 0.30 0.31 0.21 0.20 0.19 0.19 0.22 0.22 0.18 0.18 0.17 0.21 0.22 0.19 0.15 0.10 0.06 0.05 0.06 0.07 0.06 0.03
0.01 0.00 0.00 0.00 0.00 0.00 0.00 0.00 0.00 0.00 0.00 0.00 0.00 0.00 0.00 0.00 0.00 0.00 0.00 0.00 0.00 0.00 0.00 0.00 0.00 0.00 0.00 0.00 0.00 0.00 0.00 0.00 0.00 0.00 0.00 0.00 0.00 0.00 0.00 0.00 0.00 0.00 0.00 0.00 0.00 0.00 0.01 0.01 0.00 0.01 0.01 0.01 0.02 0.03 0.04 0.05 0.08 0.09 0.13 0.15 0.17 0.10 0.10 0.10 0.11 0.10 0.12 0.23 0.16 0.09 0.10 0.12 0.12 0.12 0.13 0.17 0.28 0.22 0.15 0.13 0.12 0.13 0.19 0.23 0.20 0.14 0.12 0.12 0.13 0.14 0.16 0.14 0.11 0.08 0.05 0.02 0.01
0.00 0.00 0.00 0.00 0.00 0.00 0.00 0.00 0.00 0.00 0.00 0.00 0.00 0.00 0.00 0.00 0.00 0.00 0.00 0.00 0.00 0.00 0.00 0.00 0.00 0.00 0.00 0.00 0.00 0.00 0.00 0.00 0.00 0.00 0.00 0.00 0.00 0.00 0.00 0.00 0.00 0.00 0.00 0.00 0.00 0.00 0.00 0.00 0.00 0.01 0.01 0.01 0.02 0.02 0.05 0.04 0.05 0.09 0.10 0.08 0.06 0.09 0.10 0.11 0.11 0.11 0.11 0.08 0.12 0.17 0.20 0.16 0.12 0.12 0.14 0.16 0.19 0.28 0.28 0.20 0.20 0.19 0.15 0.13 0.14 0.11 0.09 0.06 0.07 0.07 0.06 0.04 0.03 0.03 0.02 0.01 0.01
0.00 0.00 0.00 0.00 0.00 0.00 0.00 0.00 0.00 0.00 0.00 0.00 0.00 0.00 0.00 0.00 0.00 0.00 0.00 0.00 0.00 0.00 0.00 0.00 0.00 0.00 0.00 0.00 0.00 0.00 0.00 0.00 0.00 0.00 0.00 0.00 0.00 0.00 0.00 0.00 0.00 0.00 0.00 0.00 0.00 0.00 0.00 0.00 0.00 0.00 0.00 0.00 0.01 0.01 0.01 0.03 0.02 0.01 0.02 0.04 0.04 0.03 0.05 0.06 0.09 0.10 0.07 0.07 0.11 0.14 0.12 0.10 0.10 0.08 0.10 0.14 0.19 0.21 0.27 0.27 0.22 0.12 0.10 0.11 0.09 0.11 0.16 0.15 0.12 0.11 0.08 0.06 0.03 0.02 0.01 0.00 0.00
0.01 0.00 0.00 0.00 0.00 0.00 0.00 0.00 0.00 0.00 0.00 0.00 0.00 0.00 0.00 0.00 0.00 0.00 0.00 0.00 0.00 0.00 0.00 0.00 0.00 0.00 0.00 0.00 0.00 0.00 0.00 0.00 0.00 0.00 0.00 0.00 0.00 0.00 0.00 0.00 0.00 0.00 0.00 0.00 0.00 0.00 0.00 0.00 0.00 0.00 0.00 0.00 0.01 0.02 0.02 0.02 0.02 0.02 0.03 0.01 0.03 0.02 0.02 0.02 0.02 0.03 0.06 0.08 0.06 0.06 0.08 0.08 0.10 0.17 0.10 0.05 0.06 0.09 0.15 0.25 0.23 0.18 0.15 0.12 0.11 0.16 0.18 0.17 0.13 0.08 0.08 0.08 0.07 0.06 0.05 0.03 0.02
0.02 0.01 0.00 0.00 0.00 0.00 0.00 0.00 0.00 0.00 0.00 0.00 0.00 0.00 0.00 0.00 0.00 0.00 0.00 0.00 0.00 0.00 0.00 0.00 0.00 0.00 0.00 0.00 0.00 0.00 0.00 0.00 0.00 0.00 0.00 0.00 0.00 0.00 0.00 0.00 0.00 0.00 0.00 0.00 0.00 0.00 0.00 0.00 0.00 0.00 0.00 0.00 0.00 0.01 0.01 0.02 0.02 0.01 0.02 0.01 0.02 0.02 0.02 0.02 0.04 0.03 0.03 0.04 0.04 0.08 0.13 0.14 0.12 0.09 0.12 0.16 0.12 0.08 0.08 0.12 0.17 0.24 0.23 0.19 0.15 0.11 0.09 0.09 0.11 0.15 0.15 0.13 0.10 0.11 0.06 0.04 0.02
0.04 0.01 0.00 0.00 0.00 0.00 0.00 0.00 0.00 0.00 0.00 0.00 0.00 0.00 0.00 0.00 0.00 0.00 0.00 0.00 0.00 0.00 0.00 0.00 0.00 0.00 0.00 0.00 0.00 0.00 0.00 0.00 0.00 0.00 0.00 0.00 0.00 0.00 0.00 0.00 0.00 0.00 0.00 0.00 0.00 0.00 0.00 0.00 0.00 0.00 0.00 0.00 0.00 0.00 0.01 0.01 0.02 0.02 0.02 0.02 0.02 0.03 0.03 0.02 0.04 0.06 0.06 0.05 0.03 0.02 0.02 0.07 0.17 0.23 0.24 0.20 0.18 0.19 0.14 0.08 0.08 0.09 0.21 0.29 0.29 0.26 0.16 0.09 0.06 0.04 0.04 0.06 0.06 0.09 0.06 0.01 0.00
0.03 0.02 0.00 0.00 0.00 0.00 0.00 0.00 0.00 0.00 0.00 0.00 0.00 0.00 0.00 0.00 0.00 0.00 0.00 0.00 0.00 0.00 0.00 0.00 0.00 0.00 0.00 0.00 0.00 0.00 0.00 0.00 0.00 0.00 0.00 0.00 0.00 0.00 0.00 0.00 0.00 0.00 0.00 0.00 0.00 0.00 0.00 0.00 0.00 0.00 0.00 0.00 0.00 0.00 0.00 0.01 0.01 0.01 0.02 0.03 0.04 0.05 0.04 0.04 0.03 0.02 0.02 0.03 0.03 0.03 0.03 0.04 0.04 0.10 0.14 0.16 0.16 0.16 0.20 0.25 0.21 0.16 0.14 0.19 0.25 0.23 0.23 0.17 0.16 0.13 0.11 0.13 0.11 0.05 0.05 0.10 0.10
0.02 0.02 0.00 0.00 0.00 0.00 0.00 0.00 0.00 0.00 0.00 0.00 0.00 0.00 0.00 0.00 0.00 0.00 0.00 0.00 0.00 0.00 0.00 0.00 0.00 0.00 0.00 0.00 0.00 0.00 0.00 0.00 0.00 0.00 0.00 0.00 0.00 0.00 0.00 0.00 0.00 0.00 0.00 0.00 0.00 0.00 0.00 0.00 0.00 0.00 0.00 0.00 0.00 0.00 0.00 0.00 0.01 0.01 0.01 0.01 0.00 0.01 0.01 0.00 0.00 0.01 0.01 0.01 0.01 0.01 0.01 0.02 0.04 0.07 0.11 0.18 0.20 0.22 0.20 0.17 0.17 0.22 0.25 0.24 0.23 0.27 0.37 0.36 0.32 0.27 0.25 0.27 0.19 0.21 0.31 0.40 0.15
0.01 0.01 0.00 0.00 0.00 0.00 0.00 0.00 0.00 0.00 0.00 0.00 0.00 0.00 0.00 0.00 0.00 0.00 0.00 0.00 0.00 0.00 0.00 0.00 0.00 0.00 0.00 0.00 0.00 0.00 0.00 0.00 0.00 0.00 0.00 0.00 0.00 0.00 0.00 0.00 0.00 0.00 0.00 0.00 0.00 0.00 0.00 0.00 0.00 0.00 0.00 0.00 0.00 0.00 0.00 0.00 0.01 0.01 0.02 0.02 0.01 0.01 0.01 0.00 0.00 0.01 0.00 0.01 0.02 0.01 0.02 0.01 0.02 0.03 0.06 0.12 0.19 0.25 0.31 0.34 0.41 0.40 0.40 0.33 0.29 0.28 0.19 0.14 0.16 0.23 0.35 0.30 0.26 0.27 0.26 0.18 0.21
0.00 0.00 0.00 0.00 0.00 0.00 0.00 0.00 0.00 0.00 0.00 0.00 0.00 0.00 0.00 0.00 0.00 0.00 0.00 0.00 0.00 0.00 0.00 0.00 0.00 0.00 0.00 0.00 0.00 0.00 0.00 0.00 0.00 0.00 0.00 0.00 0.00 0.00 0.00 0.00 0.00 0.00 0.00 0.00 0.00 0.00 0.00 0.00 0.00 0.00 0.00 0.00 0.00 0.00 0.00 0.01 0.01 0.01 0.01 0.01 0.02 0.01 0.01 0.01 0.00 0.00 0.01 0.01 0.02 0.02 0.02 0.01 0.01 0.02 0.03 0.06 0.05 0.08 0.14 0.18 0.24 0.35 0.40 0.38 0.30 0.21 0.17 0.17 0.20 0.18 0.19 0.22 0.25 0.23 0.21 0.29 0.33
0.00 0.00 0.00 0.00 0.00 0.00 0.00 0.00 0.00 0.00 0.00 0.00 0.00 0.00 0.00 0.00 0.00 0.00 0.00 0.00 0.00 0.00 0.00 0.00 0.00 0.00 0.00 0.00 0.00 0.00 0.00 0.00 0.00 0.00 0.00 0.00 0.00 0.00 0.00 0.00 0.00 0.00 0.00 0.00 0.00 0.00 0.00 0.00 0.00 0.00 0.00 0.00 0.00 0.00 0.00 0.00 0.01 0.01 0.01 0.01 0.01 0.01 0.01 0.01 0.01 0.01 0.01 0.01 0.01 0.02 0.02 0.02 0.01 0.02 0.02 0.03 0.04 0.05 0.09 0.11 0.15 0.20 0.24 0.29 0.37 0.34 0.28 0.25 0.20 0.17 0.14 0.15 0.11 0.12 0.09 0.10 0.15
0.00 0.00 0.00 0.00 0.00 0.00 0.00 0.00 0.00 0.00 0.00 0.00 0.00 0.00 0.00 0.00 0.00 0.00 0.00 0.00 0.00 0.00 0.00 0.00 0.00 0.00 0.00 0.00 0.00 0.00 0.00 0.00 0.00 0.00 0.00 0.00 0.00 0.00 0.00 0.00 0.00 0.00 0.00 0.00 0.00 0.00 0.00 0.00 0.00 0.00 0.00 0.00 0.00 0.00 0.00 0.00 0.01 0.01 0.02 0.01 0.01 0.01 0.01 0.01 0.02 0.01 0.01 0.01 0.01 0.01 0.01 0.02 0.01 0.01 0.01 0.02 0.03 0.03 0.05 0.05 0.10 0.11 0.19 0.28 0.34 0.35 0.33 0.28 0.27 0.24 0.20 0.17 0.15 0.12 0.12 0.11 0.13
0.00 0.00 0.00 0.01 0.00 0.00 0.00 0.00 0.00 0.00 0.00 0.00 0.00 0.00 0.00 0.00 0.00 0.00 0.00 0.00 0.00 0.00 0.00 0.00 0.00 0.00 0.00 0.00 0.00 0.00 0.00 0.00 0.00 0.00 0.00 0.00 0.00 0.00 0.00 0.00 0.00 0.00 0.00 0.00 0.00 0.00 0.00 0.00 0.00 0.00 0.00 0.00 0.00 0.00 0.00 0.01 0.01 0.01 0.01 0.01 0.01 0.01 0.01 0.01 0.01 0.01 0.01 0.01 0.01 0.01 0.00 0.01 0.01 0.01 0.01 0.01 0.02 0.02 0.03 0.05 0.06 0.11 0.11 0.12 0.17 0.21 0.26 0.29 0.31 0.36 0.40 0.39 0.32 0.28 0.27 0.35 0.35
0.00 0.01 0.01 0.01 0.02 0.01 0.01 0.00 0.00 0.00 0.00 0.00 0.00 0.00 0.00 0.00 0.00 0.00 0.00 0.00 0.00 0.00 0.00 0.00 0.00 0.00 0.00 0.00 0.00 0.00 0.00 0.00 0.00 0.00 0.00 0.00 0.00 0.00 0.00 0.00 0.00 0.00 0.00 0.00 0.00 0.00 0.00 0.00 0.00 0.00 0.00 0.00 0.00 0.00 0.00 0.01 0.01 0.01 0.01 0.01 0.01 0.01 0.01 0.01 0.01 0.01 0.01 0.01 0.01 0.01 0.01 0.01 0.01 0.01 0.01 0.01 0.01 0.01 0.02 0.04 0.04 0.06 0.09 0.12 0.10 0.10 0.14 0.17 0.26 0.32 0.34 0.37 0.32 0.29 0.26 0.26 0.27
0.01 0.01 0.01 0.02 0.02 0.02 0.02 0.01 0.00 0.00 0.00 0.00 0.00 0.00 0.00 0.00 0.00 0.00 0.00 0.00 0.00 0.00 0.00 0.00 0.00 0.00 0.00 0.00 0.00 0.00 0.00 0.00 0.00 0.00 0.00 0.00 0.00 0.00 0.00 0.00 0.00 0.00 0.00 0.00 0.00 0.00 0.00 0.00 0.00 0.00 0.00 0.00 0.00 0.00 0.00 0.00 0.01 0.01 0.01 0.01 0.01 0.01 0.02 0.01 0.01 0.01 0.01 0.01 0.01 0.01 0.01 0.01 0.01 0.00 0.01 0.01 0.01 0.01 0.01 0.02 0.03 0.05 0.05 0.05 0.08 0.14 0.19 0.22 0.22 0.21 0.19 0.19 0.19 0.18 0.17 0.20 0.21
0.01 0.01 0.01 0.01 0.01 0.01 0.02 0.01 0.01 0.01 0.00 0.00 0.00 0.00 0.00 0.00 0.00 0.00 0.00 0.00 0.00 0.00 0.00 0.00 0.00 0.00 0.00 0.00 0.00 0.00 0.00 0.00 0.00 0.00 0.00 0.00 0.00 0.00 0.00 0.00 0.00 0.00 0.00 0.00 0.00 0.00 0.00 0.00 0.00 0.00 0.00 0.00 0.00 0.00 0.00 0.00 0.00 0.00 0.00 0.00 0.01 0.00 0.01 0.01 0.01 0.01 0.01 0.02 0.01 0.01 0.01 0.01 0.01 0.00 0.00 0.00 0.00 0.01 0.01 0.02 0.04 0.05 0.06 0.09 0.08 0.07 0.07 0.12 0.20 0.33 0.41 0.31 0.23 0.17 0.20 0.23 0.23
0.00 0.00 0.00 0.00 0.00 0.00 0.03 0.00 0.00 0.01 0.01 0.00 0.00 0.00 0.00 0.00 0.00 0.00 0.00 0.00 0.00 0.00 0.00 0.00 0.00 0.00 0.00 0.00 0.00 0.00 0.00 0.00 0.00 0.00 0.00 0.00 0.00 0.00 0.00 0.00 0.00 0.00 0.00 0.00 0.00 0.00 0.00 0.00 0.00 0.00 0.00 0.00 0.00 0.00 0.00 0.00 0.00 0.00 0.00 0.00 0.00 0.00 0.00 0.01 0.01 0.01 0.01 0.01 0.02 0.01 0.01 0.01 0.01 0.01 0.00 0.01 0.01 0.01 0.01 0.02 0.04 0.05 0.05 0.06 0.06 0.07 0.09 0.10 0.11 0.16 0.20 0.23 0.25 0.21 0.29 0.31 0.26
0.01 0.00 0.00 0.00 0.00 0.00 0.00 0.00 0.00 0.00 0.00 0.01 0.00 0.00 0.00 0.00 0.00 0.00 0.00 0.00 0.00 0.00 0.00 0.00 0.00 0.00 0.00 0.00 0.00 0.00 0.00 0.00 0.00 0.00 0.00 0.00 0.00 0.00 0.00 0.00 0.00 0.00 0.00 0.00 0.00 0.00 0.00 0.00 0.00 0.00 0.00 0.00 0.00 0.00 0.00 0.00 0.00 0.00 0.00 0.00 0.00 0.01 0.00 0.00 0.00 0.00 0.00 0.00 0.01 0.01 0.01 0.01 0.00 0.01 0.01 0.01 0.01 0.00 0.01 0.01 0.02 0.04 0.05 0.06 0.06 0.07 0.09 0.11 0.13 0.15 0.14 0.12 0.14 0.16 0.18 0.20 0.21
0.00 0.01 0.01 0.00 0.00 0.00 0.00 0.00 0.00 0.00 0.01 0.02 0.00 0.00 0.00 0.00 0.00 0.00 0.00 0.00 0.00 0.00 0.00 0.00 0.00 0.00 0.00 0.00 0.00 0.00 0.00 0.00 0.00 0.00 0.00 0.00 0.00 0.00 0.00 0.00 0.00 0.00 0.00 0.00 0.00 0.00 0.00 0.00 0.00 0.00 0.00 0.00 0.00 0.00 0.00 0.00 0.00 0.00 0.00 0.00 0.00 0.01 0.00 0.00 0.00 0.00 0.00 0.00 0.00 0.01 0.01 0.01 0.02 0.01 0.00 0.01 0.01 0.02 0.02 0.01 0.01 0.01 0.02 0.05 0.07 0.08 0.09 0.10 0.12 0.15 0.15 0.14 0.12 0.13 0.19 0.25 0.24
0.00 0.02 0.00 0.00 0.00 0.00 0.00 0.00 0.01 0.02 0.02 0.01 0.00 0.00 0.00 0.00 0.00 0.00 0.00 0.00 0.00 0.00 0.00 0.00 0.00 0.00 0.00 0.00 0.00 0.00 0.00 0.00 0.00 0.00 0.00 0.00 0.00 0.00 0.00 0.00 0.00 0.00 0.00 0.00 0.00 0.00 0.00 0.00 0.00 0.00 0.00 0.00 0.00 0.00 0.00 0.00 0.00 0.00 0.00 0.00 0.00 0.00 0.00 0.00 0.00 0.00 0.00 0.00 0.01 0.00 0.00 0.01 0.01 0.01 0.01 0.01 0.00 0.01 0.01 0.02 0.03 0.03 0.02 0.03 0.06 0.08 0.09 0.11 0.13 0.14 0.13 0.13 0.13 0.16 0.20 0.21 0.19
0.00 0.00 0.03 0.05 0.00 0.00 0.01 0.05 0.05 0.17 0.11 0.12 0.11 0.03 0.03 0.00 0.00 0.00 0.00 0.00 0.00 0.00 0.00 0.00 0.00 0.00 0.00 0.00 0.00 0.00 0.00 0.00 0.00 0.00 0.00 0.00 0.00 0.00 0.00 0.00 0.00 0.00 0.00 0.00 0.00 0.00 0.00 0.00 0.00 0.00 0.00 0.00 0.00 0.00 0.00 0.00 0.00 0.00 0.00 0.00 0.00 0.00 0.00 0.00 0.00 0.00 0.00 0.00 0.00 0.00 0.00 0.01 0.01 0.00 0.00 0.01 0.01 0.00 0.00 0.01 0.01 0.03 0.03 0.04 0.05 0.06 0.08 0.09 0.10 0.12 0.11 0.15 0.16 0.17 0.17 0.16 0.14
0.00 0.01 0.01 0.00 0.00 0.01 0.03 0.11 0.04 0.02 0.14 0.06 0.08 0.09 0.04 0.01 0.00 0.00 0.00 0.00 0.00 0.00 0.00 0.00 0.00 0.00 0.00 0.00 0.00 0.00 0.00 0.00 0.00 0.00 0.00 0.00 0.00 0.00 0.00 0.00 0.00 0.00 0.00 0.00 0.00 0.00 0.00 0.00 0.00 0.00 0.00 0.00 0.00 0.00 0.00 0.00 0.00 0.00 0.00 0.00 0.00 0.00 0.00 0.00 0.00 0.00 0.00 0.00 0.00 0.00 0.01 0.01 0.01 0.01 0.00 0.00 0.00 0.01 0.01 0.01 0.00 0.01 0.02 0.03 0.03 0.04 0.05 0.08 0.09 0.10 0.12 0.12 0.11 0.14 0.19 0.18 0.17
0.01 0.03 0.01 0.00 0.02 0.15 0.05 0.03 0.00 0.03 0.05 0.05 0.14 0.12 0.11 0.02 0.00 0.00 0.00 0.00 0.00 0.00 0.00 0.00 0.00 0.00 0.00 0.00 0.00 0.00 0.14 0.00 0.00 0.00 0.00 0.00 0.00 0.00 0.00 0.01 0.00 0.00 0.00 0.00 0.00 0.00 0.00 0.00 0.00 0.00 0.00 0.00 0.00 0.00 0.00 0.00 0.00 0.00 0.00 0.00 0.00 0.00 0.00 0.00 0.00 0.00 0.00 0.00 0.00 0.00 0.00 0.01 0.01 0.01 0.01 0.00 0.00 0.00 0.00 0.01 0.01 0.01 0.01 0.02 0.02 0.03 0.04 0.05 0.07 0.08 0.08 0.08 0.11 0.13 0.14 0.14 0.16